Vorticity
2 2 1 1 2 1 1 1 1 0 1 1 1 1 0 1 2 1 1 2 1 2 3 3 4 4 3 3 3 6 8 8 6 7 3 4 6 6 7 8 4 7 7 9 3
2 3 3 2 2 1 2 1 1 1 1 1 1 1 1 1 3 1 1 2 3 2 2 2 2 1 1 3 3 6 12 9 7 4 5 5 5 6 5 5 4 5 6 5 5
5 4 2 4 2 3 5 4 2 1 2 2 2 2 2 1 2 3 2 3 2 3 2 2 4 6 7 6 7 8 11 6 7 4 6 3 4 6 4 5 1 4 6 7 8
3 4 6 7 6 5 4 5 4 5 5 4 4 4 6 4 2 4 3 4 4 4 6 5 5 6 9 8 5 5 6 3 6 7 9 4 8 7 8 6 4 4 4 7 6
0 2 3 2 4 4 4 4 5 6 7 6 6 5 6 5 5 5 4 6 5 4 5 5 5 6 3 7 8 6 8 9 8 7 7 6 9 5 7 8 5 2 4 5 9
5 2 4 2 2 5 3 1 8 3 4 3 4 5 5 -2 5 6 5 4 5 5 5 5 6 5 6 4 4 9 8 9 13 5 10 10 7 10 11 6 5 3 5 5 7
12 7 13 5 5 2 -0 1 9 -2 -6 6 -0 5 2 1 2 4 3 4 3 2 4 3 6 6 6 7 11 9 7 6 11 11 7 10 2 5 -2 1 7 5 5 3 2
14 17 19 25 23 14 5 5 -8 9 0 0 -3 4 -1 7 1 0 7 3 6 7 6 6 5 3 2 2 5 1 2 11 15 9 7 -1 3 4 9 12 9 7 6 4 1
6 6 8 6 11 12 15 18 17 31 33 -2 -5 1 -7 3 15 11 8 1 3 3 2 7 6 11 11 14 7 11 11 10 7 5 5 -4 6 6 4 8 8 7 6 6 5
9 9 10 9 7 12 13 8 11 12 13 13 15 16 24 14 19 11 21 32 28 21 20 17 13 10 24 20 17 9 11 12 12 7 -0 -2 11 15 9 4 8 7 5 9 8
19 24 30 18 13 10 7 13 11 12 16 14 16 22 30 22 22 19 13 16 18 19 16 13 13 18 12 8 12 12 12 11 10 9 12 13 13 10 13 10 8 9 4 7 7
4 23 6 22 13 2 6 9 6 11 2 2 4 7 10 11 7 8 10 6 10 6 3 9 7 11 9 10 10 12 10 15 16 12 12 10 8 9 8 9 12 10 4 7 8
11 -4 7 -25 3 12 17 4 10 7 9 2 9 5 2 1 1 6 6 4 6 5 2 11 5 4 5 6 10 9 7 0 6 5 9 8 9 5 9 8 7 10 10 9 15
21 4 11 4 8 5 5 2 -39 -6 25 2 6 11 4 7 7 3 3 11 4 6 3 2 6 13 6 3 7 3 -0 4 0 5 4 4 15 8 4 8 3 5 5 4 7
-1 11 29 10 6 -2 -5 4 -2 9 0 9 15 5 9 12 15 9 6 18 3 1 8 6 5 5 8 10 9 12 2 -2 3 6 6 -3 13 -9 6 10 6 5 4 10 9
-22 -24 -40 -23 6 2 -2 9 22 10 16 -2 2 1 3 12 2 12 8 1 3 2 -0 -0 6 5 5 4 6 9 5 1 4 3 11 -3 1 5 -5 -2 0 5 9 3 7
7 3 -4 1 7 8 9 8 16 5 18 11 15 24 19 13 9 3 7 12 11 21 16 5 0 14 6 3 1 5 9 12 7 10 10 10 15 6 3 0 1 -0 7 5 10
11 8 7 9 14 17 10 11 3 8 12 20 18 16 11 12 11 9 8 8 12 11 10 8 11 13 9 15 17 12 -1 -8 8 8 12 6 12 6 3 3 3 6 8 8 9
15 19 15 12 15 14 15 14 12 14 12 13 14 10 8 10 10 10 10 11 13 17 22 18 18 13 11 10 9 9 20 24 17 14 13 6 14 15 13 13 17 14 8 11 9
14 15 14 15 14 16 15 13 11 12 15 16 11 10 11 12 15 14 15 15 14 14 14 9 13 11 8 10 12 14 10 12 2 5 2 11 11 8 10 -3 0 2 13 7 5
13 13 12 12 15 15 0 11 15 15 11 11 12 10 11 12 14 14 10 13 13 10 5 2 4 7 6 5 8 6 6 7 10 9 13 12 16 14 15 10 5 7 10 7 14
10 14 6 14 16 -5 6 7 11 10 13 9 8 15 11 12 12 13 8 8 6 6 5 6 8 8 4 10 10 6 4 3 2 6 4 5 5 17 20 12 5 1 6 14 11
13 15 13 11 7 4 7 14 13 14 10 10 13 10 7 11 11 8 7 6 6 5 6 8 8 10 7 8 5 6 8 6 16 14 17 10 25 35 10 9 12 8 5 2 1
12 10 7 12 12 17 7 8 3 5 6 8 5 6 7 7 7 7 5 7 7 5 5 10 7 7 11 7 7 7 -1 9 8 5 13 -3 18 -4 23 27 9 6 5 0 -11
13 12 15 11 15 13 8 3 8 8 8 5 5 10 11 12 9 5 8 7 8 8 8 7 9 10 9 12 13 12 17 15 20 8 17 28 16 7 26 13 33 11 12 21 6
11 9 11 9 10 6 2 11 10 14 12 12 13 8 4 6 6 8 9 7 5 9 9 10 9 10 9 13 14 14 5 21 19 2 5 -10 30 -1 7 13 29 24 11 -4 34
1 10 16 13 12 12 12 8 3 6 8 9 11 10 11 11 10 11 9 8 10 11 9 8 10 14 14 3 11 14 24 -2 6 18 10 16 23 28 11 21 23 38 22 13 -4
Height
5816 5818 5821 5824 5828 5830 5833 5835 5838 5840 5843 5845 5846 5848 5850 5851 5852 5854 5855 5856 5856 5857 5858 5858 5860 5860 5860 5861 5862 5863 5863 5863 5861 5860 5861 5860 5861 5860 5860 5861 5862 5862 5862 5861 5859
5805 5809 5811 5814 5817 5820 5823 5826 5829 5831 5833 5835 5837 5839 5841 5843 5844 5846 5848 5847 5849 5849 5850 5851 5851 5852 5853 5854 5855 5855 5857 5856 5855 5854 5854 5854 5854 5853 5854 5854 5856 5856 5855 5855 5855
5794 5797 5800 5803 5806 5809 5812 5815 5818 5821 5823 5826 5828 5831 5832 5834 5836 5837 5838 5839 5840 5841 5842 5843 5843 5845 5845 5845 5846 5848 5849 5849 5849 5848 5848 5848 5847 5847 5847 5847 5850 5848 5847 5849 5849
5781 5784 5788 5791 5795 5798 5801 5804 5807 5809 5813 5815 5818 5820 5823 5825 5828 5827 5828 5830 5831 5832 5834 5835 5836 5836 5838 5837 5838 5839 5840 5841 5842 5842 5843 5841 5840 5841 5839 5841 5842 5841 5841 5842 5843
5769 5773 5776 5780 5783 5785 5788 5792 5795 5798 5801 5803 5805 5809 5812 5815 5816 5817 5818 5819 5820 5822 5825 5826 5827 5828 5828 5829 5830 5830 5830 5832 5832 5832 5834 5834 5834 5832 5831 5835 5834 5833 5834 5835 5836
5756 5760 5763 5767 5770 5772 5776 5780 5784 5786 5789 5792 5794 5798 5802 5806 5804 5805 5807 5808 5810 5812 5813 5815 5817 5817 5818 5819 5821 5821 5822 5822 5823 5823 5824 5825 5826 5824 5827 5826 5826 5825 5825 5826 5827
5742 5746 5750 5752 5757 5760 5764 5768 5771 5773 5777 5780 5781 5784 5791 5793 5793 5795 5796 5798 5799 5800 5802 5804 5806 5807 5809 5807 5809 5811 5813 5813 5815 5814 5815 5815 5814 5818 5819 5819 5817 5816 5816 5817 5818
5729 5732 5735 5738 5741 5746 5749 5752 5757 5759 5762 5767 5768 5772 5779 5779 5780 5782 5785 5786 5787 5789 5790 5792 5796 5797 5798 5797 5798 5800 5803 5805 5806 5804 5805 5806 5807 5810 5809 5808 5806 5806 5807 5808 5810
5717 5721 5724 5725 5726 5731 5735 5737 5741 5742 5747 5750 5757 5761 5768 5768 5769 5770 5772 5774 5775 5777 5778 5779 5783 5785 5786 5786 5788 5790 5791 5792 5794 5794 5794 5796 5799 5801 5797 5795 5796 5798 5798 5799 5801
5705 5709 5712 5713 5716 5718 5720 5724 5728 5731 5734 5739 5743 5749 5752 5753 5755 5758 5759 5760 5760 5762 5765 5769 5771 5772 5773 5774 5776 5776 5777 5779 5781 5783 5783 5788 5790 5788 5787 5785 5786 5785 5788 5790 5793
5693 5697 5699 5701 5705 5707 5708 5712 5718 5721 5724 5728 5733 5735 5738 5741 5742 5746 5747 5748 5749 5752 5755 5758 5761 5763 5763 5763 5765 5766 5768 5769 5772 5773 5772 5775 5776 5776 5778 5777 5776 5778 5780 5781 5783
5681 5686 5686 5689 5692 5694 5697 5702 5706 5710 5714 5718 5721 5727 5728 5729 5734 5735 5736 5739 5742 5745 5746 5749 5752 5756 5753 5753 5755 5757 5757 5760 5762 5763 5760 5763 5764 5766 5766 5766 5770 5771 5771 5773 5774
5669 5673 5674 5677 5678 5682 5686 5690 5696 5699 5702 5712 5712 5717 5718 5720 5725 5727 5726 5729 5734 5735 5738 5739 5743 5744 5746 5747 5747 5748 5748 5750 5750 5751 5751 5751 5754 5757 5759 5758 5759 5761 5764 5764 5767
5655 5657 5661 5662 5667 5670 5674 5678 5683 5687 5690 5700 5703 5705 5709 5711 5714 5718 5716 5719 5723 5725 5727 5729 5734 5734 5735 5737 5738 5738 5741 5738 5739 5738 5740 5744 5738 5748 5751 5752 5750 5752 5754 5755 5756
5641 5645 5646 5650 5652 5656 5660 5663 5668 5675 5677 5686 5691 5696 5698 5700 5703 5706 5705 5705 5710 5713 5715 5720 5723 5724 5725 5727 5725 5729 5727 5726 5727 5728 5728 5731 5732 5737 5740 5743 5746 5747 5745 5743 5743
5626 5630 5636 5638 5638 5643 5646 5652 5655 5659 5665 5671 5678 5683 5685 5686 5689 5692 5693 5694 5698 5699 5701 5706 5709 5712 5715 5715 5715 5714 5715 5714 5713 5714 5715 5719 5719 5731 5731 5728 5731 5734 5735 5733 5731
5610 5614 5620 5624 5626 5630 5635 5642 5645 5647 5654 5657 5663 5670 5671 5671 5674 5678 5680 5682 5684 5686 5690 5695 5698 5699 5700 5701 5702 5702 5702 5699 5697 5694 5703 5706 5704 5720 5717 5716 5718 5717 5716 5718 5720
5597 5602 5607 5611 5615 5620 5624 5630 5632 5640 5643 5646 5651 5655 5658 5657 5662 5665 5666 5668 5669 5673 5676 5679 5684 5686 5685 5685 5686 5686 5688 5687 5684 5683 5689 5689 5692 5704 5707 5707 5701 5701 5703 5706 5707
5584 5589 5595 5599 5602 5605 5609 5615 5624 5628 5631 5635 5640 5643 5644 5644 5648 5652 5653 5654 5655 5659 5661 5662 5671 5673 5673 5674 5675 5674 5673 5675 5667 5668 5666 5674 5683 5693 5694 5691 5689 5688 5688 5687 5689
5569 5575 5582 5586 5590 5592 5595 5604 5609 5614 5618 5622 5625 5628 5630 5632 5636 5639 5640 5640 5643 5644 5645 5646 5656 5660 5662 5664 5664 5662 5662 5661 5658 5656 5654 5659 5665 5677 5682 5676 5674 5673 5671 5670 5672
5556 5562 5571 5573 5576 5577 5583 5590 5598 5602 5605 5609 5610 5614 5617 5621 5623 5627 5627 5627 5629 5631 5635 5636 5641 5649 5651 5651 5649 5650 5648 5646 5644 5643 5640 5640 5644 5667 5667 5663 5661 5659 5658 5658 5659
5544 5551 5558 5561 5566 5567 5572 5579 5585 5588 5593 5597 5600 5603 5606 5609 5612 5614 5616 5616 5620 5622 5624 5622 5625 5632 5636 5637 5636 5635 5636 5634 5631 5632 5629 5627 5628 5657 5643 5645 5642 5644 5646 5647 5647
5533 5540 5546 5550 5553 5558 5563 5567 5572 5576 5580 5584 5588 5592 5594 5598 5599 5603 5606 5609 5609 5609 5609 5610 5610 5615 5624 5625 5623 5622 5622 5622 5621 5620 5618 5613 5613 5630 5629 5626 5627 5628 5628 5629 5631
5522 5528 5534 5538 5544 5550 5553 5558 5561 5565 5568 5570 5574 5577 5580 5584 5587 5593 5596 5596 5596 5598 5598 5597 5600 5601 5606 5614 5606 5610 5610 5610 5608 5607 5604 5602 5599 5611 5613 5608 5611 5609 5611 5613 5615
5512 5518 5526 5531 5537 5540 5543 5548 5551 5553 5556 5559 5563 5565 5566 5571 5575 5576 5580 5582 5585 5586 5587 5587 5588 5587 5591 5596 5590 5591 5594 5599 5596 5596 5587 5591 5587 5593 5596 5592 5594 5593 5595 5597 5598
5505 5511 5516 5522 5525 5529 5532 5538 5540 5542 5546 5548 5552 5553 5556 5560 5560 5562 5567 5569 5573 5575 5574 5573 5574 5576 5578 5582 5579 5576 5582 5587 5584 5581 5577 5578 5577 5577 5582 5578 5578 5580 5580 5580 5582
5496 5501 5505 5511 5515 5520 5524 5527 5528 5531 5535 5538 5541 5543 5543 5544 5546 5549 5553 5556 5559 5561 5560 5563 5564 5563 5564 5569 5566 5563 5577 5573 5571 5571 5569 5567 5567 5568 5571 5566 5567 5563 5565 5566 5569